Regional Weather Roundup
Issued by NWS

Home | Current Version | Previous Version | Text Only | Print | Product List | Glossary Off
Versions: 1 2 3 4 5 6 7 8 9 10 11 12 13 14 15 16 17 18 19 20 21 22 23 24 25 26 27 28 29 30 31 32 33 34 35 36 37 38 39 40 41 42 43 44 45 46 47 48 49 50

811
ASUS43 KIND 241609
RWRIN

WEATHER ROUNDUP FOR INDIANA
NATIONAL WEATHER SERVICE INDIANAPOLIS IN
1200 PM EDT TUE MAY 24 2016

NOTE: "FAIR" INDICATES FEW OR NO CLOUDS BELOW 12,000 FEET WITH NO
SIGNIFICANT WEATHER AND/OR OBSTRUCTIONS TO VISIBILITY.

* - STATION DOES NOT REPORT WEATHER SUCH AS PRECIPITATION OR FOG.

+ - STATION NOT QUALITY CONTROLLED BY THE NATIONAL WEATHER SERVICE.
    USE DATA WITH CAUTION...ESPECIALLY DEWPOINT AND RELATIVE
    HUMIDITY OBSERVATIONS.

INZ001>003-010>013-019-020-241700-
NORTHWEST INDIANA

CITY           SKY/WX    TMP DP  RH WIND       PRES   REMARKS
GARY /AIRPORT/ MOSUNNY   81  59  47 SW14      30.02S
KNOX *+        SUNNY     79  34  19 SW7       30.04S
LA PORTE +     SUNNY     81  50  34 SW12      30.04S
MICHIGAN CITY+ SUNNY     79  54  41 SW12      30.03S
MONTICELLO +   MOSUNNY   79  42  26 SW12      30.04F HAZE
RENSSELAER +   SUNNY     82  43  24 SW15      30.04S
VALPARAISO     SUNNY     80  51  36 SW16      30.04R

$$

LMZ046-743>745-241700-
SOUTHERN LAKE MICHIGAN

STATION/POSITION TIME  TEMP    WIND        PRES    WAVE
                       AIR SEA DIR/SP/G            HT
                 (UTC) (F)     (DEG/KT/KT) (MB)    (FT)
BURNS HARBOR     1500   74     220/  9/ 12 1016.9S
MICHIGAN CITY    1500   73     230/  5/  5   N/A
5NW MICH CITY    1600   69 58  260/  2/  2   N/A     0

$$

INZ004-005-014>016-021>024-241700-
NORTH CENTRAL INDIANA

CITY           SKY/WX    TMP DP  RH WIND       PRES   REMARKS
ELKHART        MOSUNNY   77  57  50 MISG      30.05S
GOSHEN         SUNNY     78  50  37 SW10      30.05S
LOGANSPORT +   SUNNY     79  50  36 SW9       30.06F
PERU/GRISSOM   SUNNY     79  51  37 SW12      30.06S
ROCHESTER +    SUNNY     81  50  34 S9        30.06S
SOUTH BEND     SUNNY     77  52  41 SW13      30.05S
WARSAW +       SUNNY     77  50  38 SW3       30.06S

$$

INZ006>009-017-018-025>027-241700-
NORTHEAST INDIANA

CITY           SKY/WX    TMP DP  RH WIND       PRES   REMARKS
ANGOLA *+      SUNNY     79  52  38 SW10      30.06S
AUBURN +       SUNNY     77  45  31 W7        30.08S
FORT WAYNE     PTSUNNY   78  46  32 W14       30.08S
HUNTINGTON +   SUNNY    N/A N/A N/A SW8       30.07S

$$

INZ028-029-035-036-043>045-051>053-241700-
WEST CENTRAL INDIANA

CITY           SKY/WX    TMP DP  RH WIND       PRES   REMARKS
CRAWFORDSVL +  SUNNY     77  53  42 SW12      30.08R
GREENCASTLE +  SUNNY     75  57  53 SW3       30.09R
LAFAYETTE      SUNNY     79  50  36 VRB5      30.05S
TERRE HAUTE    SUNNY     78  56  46 VRB7      30.08R

$$

INZ030>032-037>040-046>048-054>057-064-065-241700-
CENTRAL INDIANA

CITY           SKY/WX    TMP DP  RH WIND       PRES   REMARKS
ANDERSON       SUNNY     75  46  35 SW9       30.10F
CP ATTERBURY + SUNNY     77  46  33 SW6       30.11S
COLUMBUS       SUNNY     75  46  35 S12       30.11S
FRANKFORT +      N/A     80  29  15 SW7       30.08S
GREENWOOD *+   SUNNY     77  46  33 S9        30.10F
INDIANAPOLIS   MOSUNNY   77  51  40 SW12      30.09S
-EAGLE CREEK   SUNNY     77  50  38 S6        30.08F
KOKOMO *+      SUNNY     79  52  38 SW8G17    30.07S
MARION +       SUNNY     78  45  31 S3G9      30.08F
SHELBYVILLE    SUNNY     78  47  33 S12       30.09F
ZIONSVILLE +   SUNNY     76  50  39 S10       30.09S

$$

INZ033-034-041-042-049-050-058-059-241700-
EAST CENTRAL INDIANA

CITY           SKY/WX    TMP DP  RH WIND       PRES   REMARKS
MUNCIE         SUNNY     78  46  32 VRB7      30.09S

$$

INZ060-061-067>069-081>083-085>088-241700-
SOUTHWEST INDIANA

CITY           SKY/WX    TMP DP  RH WIND       PRES   REMARKS
EVANSVILLE     MOSUNNY   78  56  46 S7        30.09S
HUNTINGBURG *+ MOSUNNY   79  55  44 S6        30.10S
WASHINGTON +   SUNNY     78  58  48 S8        30.08S

$$

INZ062-063-066-070>080-084-089>092-241700-
SOUTH CENTRAL AND SOUTHEAST INDIANA

CITY           SKY/WX    TMP DP  RH WIND       PRES   REMARKS
BEDFORD +      SUNNY     77  61  57 S6        30.10S
BLOOMINGTON    SUNNY     77  51  40 S9        30.09F
MADISON *+     SUNNY     79  45  29 CALM      30.14S
NORTH VERNON + SUNNY     79  54  41 CALM      30.13R
SEYMOUR +      SUNNY     79  50  36 S3        30.11S

$$





USA.gov is the U.S. government's official web portal to all federal, state and local government web resources and services.